{"data":{"norad_id":63992,"epoch":"2026-09-21T23:16:42.267360Z","epoch_age_seconds":71765,"freshness":"FRESH","line1":"1 63992U 25100L   26264.96993365  .00008268  00000+0  37591-3 0  9998","line2":"2 63992  97.3587 335.7199 0006538 328.7032  31.3814 15.20972492 75322","mean_motion":15.20972492,"eccentricity":0.0006538,"inclination_deg":97.3587,"raan_deg":335.7199,"arg_perigee_deg":328.7032,"mean_anomaly_deg":31.3814,"bstar":0.00037591,"rev_number":7532,"period_min":94.676268477839,"perigee_km":498.40711862964,"apogee_km":507.40477038388,"semimajor_km":6881.0429445068,"source":"CELESTRAK","updated_at":"2026-09-22T09:00:29.480673Z"}}